sat.trackr.live / text

‹ back to catalog

BRO-19

NORAD 68422 · 2026-067G

PAYLOAD ACTIVE UNKNOWN

§ Identity

Operator
Country
FR
Launch date
2026-03-30
Launch site
AFWTR
Launch vehicle
Mass (kg)
RCS (m²)

External: N2YO · Heavens-Above · Gunter

§ Orbital elements

Epoch: 2026-09-19T02:42:42.027552Z

Period
94.78 min
Inclination
97.4581°
Eccentricity
0.0000975
Mean motion
15.19339431 rev/d
Perigee alt
507.2 km
Apogee alt
508.5 km
Semi-major
6,886.0 km
B*
1.0684e-4
RAAN
219.2992°
Arg perigee
74.9665°
Mean anomaly
285.1678°
Rev number
2,620

§ Raw data

BRO-191 68422U 26067G   26262.11298643  .00002189  00000+0  10684-3 0  99962 68422  97.4581 219.2992 0000975  74.9665 285.1678 15.19339431 26206

JSON: /api/v1/satellites/68422 · /tle

For live sub-satellite position, see the globe view (requires WebGL).

§ Visibility from observer

Set your observer location to see the next 7 days of passes ≥ 10°. The values pass through the URL so the page stays shareable.

No JS? Fill the form by hand. The geolocation button needs JavaScript.